Walla Walla, WA

4:01 PM PST on January 22, 2018 (GMT -0800)
Walla Walla Regional

Weather History for KALW - March, 2013

Change the Weather History Date:

Sunday, March 10, 2013

  Actual Average Record
Temperature  
Mean Temperature 46 °F 45 °F  
Max Temperature 55 °F 53 °F 77 °F (2015)
Min Temperature 37 °F 36 °F 24 °F (1958)
Degree Days  
Heating Degree Days 19 20  
Month to date heating degree days 216  
Since 1 July heating degree days 3993  
Cooling Degree Days 0 0  
Month to date cooling degree days 0  
Year to date cooling degree days 0  
Moisture  
Dew Point 31 °F    
Average Humidity 55    
Maximum Humidity 80    
Minimum Humidity 29    
Precipitation  
Precipitation 0.02 in 0.07 in 0.79 in (1990)
Month to date precipitation 0.71  
Year to date precipitation 5.00  
Snow  
Snow 0.00 in 0.00 in 0.00 in (2002)
Month to date snowfall 0.5  
Year to date snowfall 5.5  
Since 1 July snowfall 11.2  
Snow Depth -    
Sea Level Pressure  
Sea Level Pressure 30.37 in    
Wind  
Wind Speed 9 mph (South)    
Max Wind Speed 18 mph    
Max Gust Speed -    
Visibility 10 miles    
Events Rain    
T = Trace of Precipitation, MM = Missing Value Source: NWS Daily Summary

Daily Weather History Graph

Daily Weather History Graph

Search for Another Location

Airport or City:

Trip Planner

Search our weather history database for the weather conditions in past years. The results will help you decide how hot, cold, wet, or windy it might be!

Date:

Astronomy

Mar. 10, 2013 Rise Set
Actual Time 7:14 AM PDT 6:52 PM PDT
Civil Twilight 6:44 AM PDT 7:22 PM PDT
Nautical Twilight 6:10 AM PDT 7:57 PM PDT
Astronomical Twilight 5:35 AM PDT 8:32 PM PDT
Moon 6:19 AM PDT (3/10) 6:05 PM PDT (3/10)
Length of Visible Light 12h 37m
Length of Day
11h 37m
Waning Crescent, 1% of the Moon is Illuminated
Mar 10
Waning Crescent
Mar 11
New
Mar 19
First Quarter
Mar 27
Full
Apr 2
Last Quarter

Hourly Weather History & Observations

Time (PDT) Temp. Windchill Dew Point Humidity Pressure Visibility Wind Dir Wind Speed Gust Speed Precip Events Conditions
12:53 AM 42.1 °F 37.1 °F 25.0 °F 51% 30.43 in 10.0 mi South 8.1 mph - N/A   Clear
1:53 AM 42.1 °F 38.4 °F 25.0 °F 51% 30.43 in 10.0 mi South 5.8 mph - N/A   Clear
3:53 AM 39.9 °F 34.5 °F 25.0 °F 55% 30.42 in 10.0 mi SSE 8.1 mph - N/A   Clear
5:53 AM 37.9 °F 33.5 °F 25.0 °F 60% 30.44 in 10.0 mi South 5.8 mph - N/A   Clear
6:53 AM 39.9 °F 35.8 °F 25.0 °F 55% 30.44 in 10.0 mi SSW 5.8 mph - N/A   Clear
7:53 AM 42.1 °F 37.7 °F 26.1 °F 53% 30.44 in 10.0 mi SSW 6.9 mph - N/A   Clear
8:53 AM 46.9 °F - 27.0 °F 46% 30.43 in 10.0 mi SSW 8.1 mph - N/A   Clear
9:53 AM 51.1 °F - 24.1 °F 35% 30.41 in 10.0 mi SW 8.1 mph - N/A   Clear
10:53 AM 53.1 °F - 23.0 °F 31% 30.40 in 10.0 mi SW 9.2 mph - N/A   Partly Cloudy
11:53 AM 55.0 °F - 25.0 °F 31% 30.38 in 10.0 mi SW 15.0 mph - N/A   Mostly Cloudy
12:53 PM 55.9 °F - 25.0 °F 30% 30.35 in 10.0 mi SSW 18.4 mph - N/A   Mostly Cloudy
1:53 PM 55.9 °F - 25.0 °F 30% 30.32 in 10.0 mi SW 9.2 mph - N/A   Overcast
2:53 PM 55.0 °F - 23.0 °F 29% 30.32 in 10.0 mi South 15.0 mph - 0.00 in Rain Light Rain
3:53 PM 53.1 °F - 27.0 °F 37% 30.34 in 10.0 mi South 9.2 mph - 0.00 in Rain Light Rain
4:53 PM 46.9 °F - 39.0 °F 74% 30.35 in 8.0 mi SSE 13.8 mph - 0.01 in Rain Light Rain
5:53 PM 48.0 °F - 39.9 °F 74% 30.33 in 10.0 mi SSE 15.0 mph - 0.01 in Rain Light Rain
6:53 PM 48.9 °F - 39.9 °F 71% 30.31 in 10.0 mi South 12.7 mph - 0.00 in   Mostly Cloudy
7:53 PM 50.0 °F - 39.9 °F 68% 30.31 in 10.0 mi South 11.5 mph - N/A   Overcast
8:53 PM 50.0 °F - 39.9 °F 68% 30.31 in 10.0 mi South 10.4 mph - N/A   Overcast
9:53 PM 48.9 °F - 41.0 °F 74% 30.32 in 10.0 mi South 8.1 mph - N/A   Overcast
10:53 PM 48.0 °F - 41.0 °F 77% 30.33 in 10.0 mi South 9.2 mph - N/A   Overcast
11:53 PM 46.9 °F - 41.0 °F 80% 30.32 in 10.0 mi South 12.7 mph - N/A   Overcast
12:53 AM 46.0 °F 39.6 °F 39.9 °F 79% 30.32 in 10.0 mi South 15.0 mph - N/A   Overcast